User: anonymous   Login
Location: Abraham Lincoln Continuation High School
(33.9711°N, 117.3662°W)
Time: 22:25:26
(UTC+00:00)
Language:

GOES 2 Rocket - Orbit

View from above orbital plane
View from above orbital plane
View from above satellite
View from above satellite

Ground track
Ground track

The orbit data is extracted from the following two-line orbital elements,

1 10062U 77048B   20336.95295003  .00000150  00000-0  14157-4 0  9990
2 10062  28.4194 214.2348 0736611 296.3473  56.3269 13.36698961115933
Epoch (UTC): 01 December 2020 22:52:14
Eccentricity: 0.0736611
inclination: 28.4194°
perigee height: 569 km
apogee height: 1674 km
right ascension of ascending node: 214.2348°
argument of perigee: 296.3473°
revolutions per day: 13.36698961
mean anomaly at epoch: 56.3269°
orbit number at epoch: 11593

The dashed part of the orbit path shows where the satellite is in the earth's shadow,  

DLR